Location: New Frontier Mobile Home Park
(32.8448°N, 116.9675°W)
Time: 23:07:18
(UTC+00:00)

Sakura Rocket - Pass Details

Date: 14 July 2020
Orbit: 476 x 1743 km, 28.7° (Epoch: 05 August)

Event Time Altitude Azimuth Distance (km) Brightness Sun altitude
Exits shadow 10:53:32 34° 243° (WSW) 1,707 4.7 -20.7°
Maximum altitude 10:56:50 64° 174° (S) 1,313 4.4 -20.2°
Drops below altitude 10° 11:05:59 10° 95° (E) 3,648 7.5 -18.9°
Sets 11:09:32 0° 93° (E) 4,779 8.3 -18.3°
